Powrót do katalogu

Slippers2Sat

AktywnyNaukaSSO
NORAD 66996·PAYLOAD·🇨🇳 China

Wystrzelony Dec 10, 2025 z Jiuquan Satellite Launch Center

Loading…

Następne Przeloty (najbliższe 24 godziny)

TLE

ŚwieżeSource: Space-Track

Epoka: Sep 14, 2026, 11:22 UTC

1 66996U 25292D   26257.47381954  .00002254  00000-0  15645-3 0  9996
2 66996  97.6253 332.2512 0015531  61.7177 298.5616 15.06498173 41884

Śledź Slippers2Sat w czasie rzeczywistym z AllMySat

Download on the App Store